www.pogodaiklimat.ru

Погода и климат >> Архив погоды >> Хорватия >> Славонски-Брод


ПОГОДА в Славонски-Броде

  • Прогноз погоды в Славонски-Броде
  • Монитор погоды в Славонски-Броде

АРХИВ ПОГОДЫ в Славонски-Броде

Время (UTC), дата Ветер
(напр.,м/с)
 
Видим.   Явления Облачность Т
(С)
Тd
(С)
f
(%)
Тe
(С)
Тes
(С)
Комфортность P
(гПа)
Po
(гПа)
Тmin
(С)
Tmax
(С)
R
(мм)
R24
(мм)
S
(см)
10 13.08 СВ 3 30 км 3/3 1500 м
[Cu hum]
+28.2 +19.1 58 +34 +43 очень
душно
1012.7 1002.6
11 13.08 СВ 3 30 км 1/1 1500 м
[Cu hum]
+28.8 +18.5 54 +34 +46 очень
душно
1012.3 1002.2
12 13.08 СВ 2 30 км 3/3 1500 м
[Cu hum]
+29.6 +18.9 53 +35 +45 очень
душно
1012.2 1002.2
13 13.08 СЗ 3 30 км 4/3 1500 м
[Cu hum Ac As]
+30.0 +18.9 51 +35 +42 очень
душно
1011.6 1001.6
14 13.08 З 2 30 км 8/8 1000 м
[Cu Sc]
+28.2 +20.7 64 +35 +37 очень
душно
1011.6 1001.5
15 13.08 С 5 30 км 8/8 1000 м
[Sc]
+28.4 +17.7 52 +33 +33 очень
душно
1011.3 1001.2
16 13.08 З 3 н/о н/о +26.5 +19.5 65 +32 +32 очень
душно
1012.4 1002.2
17 13.08 ЮЗ 1 н/о н/о +24.0 +18.5 71 +28 +28 душно 1012.5 1002.2
18 13.08 ЮЗ 2 30 км 10/10 600 м
[St]
+22.8 +18.6 77 +29 +29 очень
душно
1012.7 1002.4 +30.2
19 13.08 СЗ 3 10 км гроза, ливневой дождь 10/10 600 м
[Cb cap]
+21.2 +18.6 85 +26 +26 душно 1013.1 1002.8
20 13.08 СЗ 2 10 км в посл. час гроза 9/9 600 м
[St]
+20.9 +19.2 90 +26 +26 душно 1012.2 1001.9
21 13.08 СЗ 1 10 км 5/5 1000 м
[Sc]
+20.0 +18.6 92 +24 +24 комфорт 1012.7 1002.3
00 14.08 З 1 10 км 10/10 600 м
[St]
+19.4 +18.5 95 +23 +23 комфорт 1012.0 1001.6 0.4
03 14.08 ЮЗ 1 10 км 10/10 600 м
[St]
+18.8 +15.1 79 +21 +21 комфорт 1012.9 1002.5
04 14.08 ЮЗ 1 30 км 10/10 600 м
[St]
+18.2 +15.5 84 +20 +20 1013.0 1002.6
05 14.08 СЗ 2 10 км слаб. дождь 10/8 300 м
[Frnb As op]
+17.8 +16.2 90 +18 +18 1013.9 1003.4
06 14.08 З 1 3000 м дождь 10/8 600 м
[Frnb As op]
+17.1 +16.1 94 +18 +18 1015.2 1004.7 +17.1 2
07 14.08 ЮВ 1 3000 м дождь 10/8 600 м
[Frnb As op]
+17.0 +15.9 93 +18 +18 1014.8 1004.3
08 14.08 З 1 2000 м слаб. дождь 10/8 300 м
[Frnb As op]
+16.8 +16.1 96 +18 +18 1016.1 1005.6
09 14.08 ЮЗ 2 2000 м слаб. дождь 10/8 300 м
[Frnb As op]
+16.7 +16.0 96 +17 +17 1016.5 1006.0
10 14.08 З 2 10 км в посл. час дождь 10/10 300 м
[St]
+17.6 +16.5 93 +18 +18 1016.3 1005.8
11 14.08 С 3 20 км 10/10 300 м
[St]
+17.7 +15.3 86 +18 +18 1016.2 1005.7
12 14.08 СЗ 2 30 км {дождь} 10/10 600 м
[St]
+17.8 +14.7 82 +18 +18 1016.4 1005.9 13
13 14.08 СЗ 2 30 км 10/8 600 м
[St As op]
+18.7 +14.0 74 +20 +21 1016.2 1005.7
14 14.08 З 2 30 км 10/8 600 м
[St As op]
+19.0 +14.1 73 +21 +21 комфорт 1016.1 1005.7
15 14.08 ЮЗ 2 30 км 9/5 600 м
[St Ac As]
+19.5 +14.1 71 +22 +23 комфорт 1015.9 1005.5
16 14.08 ЮЗ 2 н/о н/о +19.4 +15.7 79 +22 +22 комфорт 1016.4 1005.9
17 14.08 ЮЗ 2 н/о н/о +18.7 +15.8 83 +20 +20 1016.7 1006.2
18 14.08 ЮЗ 1 30 км 8/0
[Ac As]
+18.3 +16.2 88 +20 +20 1016.7 1006.2 +20.3 13
19 14.08 ЮЗ 1 30 км 6/0
[Ac trans]
+17.6 +16.0 90 +19 +19 1017.1 1006.6
20 14.08 СЗ 1 20 км 4/0
[Ac trans]
+16.4 +15.2 93 +17 +17 1017.2 1006.7
21 14.08 З 1 2000 м дымка 4/0
[Ac trans Ci fib]
+15.5 +15.0 97 +16 +16 1017.3 1006.7
00 15.08 СЗ 1 2000 м дымка 3/0
[Ci fib]
+13.7 +13.3 97 +14 +14 1017.3 1006.6
03 15.08 ЮЗ 1 2000 м дымка 5/0
[Ac trans Ci fib]
+12.3 +11.9 97 +12 +12 1017.1 1006.4
04 15.08 штиль 0 200 м туман ясно +11.8 +11.6 99 +11 +11 1017.1 1006.4
05 15.08 штиль 0 100 м туман ясно +12.0 +11.8 99 +11 +12 1017.5 1006.8
06 15.08 ЮЗ 1 100 м туман ?/? +13.8 +13.4 97 +14 +14 1017.6 1006.9 +11.5
07 15.08 ЮЗ 2 600 м туман 10/10 300 м
[St]
+14.9 +14.4 97 +15 +15 1017.7 1007.1
08 15.08 Ю 1 10 км в посл. час туман 8/8 1000 м
[Cu med, cong]
+16.8 +14.8 88 +18 +20 1017.5 1007.0
09 15.08 Ю 2 30 км 3/3 1500 м
[Cu med, cong]
+19.2 +15.7 80 +21 +31 комфорт 1016.8 1006.4
10 15.08 ЮЗ 2 30 км 4/4 1500 м
[Cu med, cong]
+21.6 +14.2 63 +25 +34 комфорт 1016.2 1005.8
11 15.08 Ю 2 30 км 4/4 1500 м
[Cu hum]
+22.8 +13.1 54 +26 +35 жарко 1015.7 1005.4
12 15.08 ЮЗ 2 30 км 4/4 1500 м
[Cu med, cong]
+23.7 +13.2 52 +26 +35 жарко 1015.1 1004.8
13 15.08 Ю 2 30 км 5/5 1500 м
[Cu med, cong]
+25.0 +12.5 46 +27 +33 жарко 1014.6 1004.4
14 15.08 ЮЗ 2 30 км 6/6 1500 м
[Cu med, cong]
+25.0 +11.5 43 +26 +30 жарко 1014.2 1004.0
15 15.08 Ю 2 30 км 6/6 1500 м
[Cu med, cong]
+24.4 +11.1 43 +26 +28 жарко 1014.3 1004.0
16 15.08 Ю 2 н/о н/о +23.7 +10.4 43 +25 +25 комфорт 1014.9 1004.6
17 15.08 В 2 н/о н/о +23.6 +9.3 40 +24 +24 комфорт 1014.9 1004.6
18 15.08 В 1 30 км 3/0
[Ac trans]
+22.0 +10.0 46 +24 +24 комфорт 1014.3 1004.0 +25.4
19 15.08 СВ 1 30 км 3/0
[Ac trans]
+19.2 +12.5 65 +21 +21 комфорт 1015.2 1004.8
20 15.08 штиль 0 10 км ясно +16.0 +13.3 84 +16 +16 1015.7 1005.1
21 15.08 штиль 0 10 км ясно +13.6 +12.2 91 +13 +13 1015.8 1005.2
00 16.08 штиль 0 5000 м дымка ясно +11.5 +10.8 95 +11 +11 1015.9 1005.2
03 16.08 З 1 5000 м дымка ясно +9.6 +9.2 97 +9 +9 1016.4 1005.6
04 16.08 С 1 2000 м дымка ясно +9.8 +9.4 97 +9 +9 1016.6 1005.8
05 16.08 штиль 0 5000 м дымка 3/0
[Ac trans]
+10.6 +10.2 97 +10 +11 1016.7 1005.9
06 16.08 ЮЗ 1 5000 м дымка 1/0
[Ac trans]
+13.9 +13.0 94 +14 +17 1017.2 1006.6 +9.5
07 16.08 ЮЗ 1 30 км 3/0
[Ac trans Ci fib]
+16.5 +13.7 84 +17 +23 1017.4 1006.8
08 16.08 ЮЗ 2 30 км 4/0
[Ci fib]
+19.3 +14.3 73 +21 +30 комфорт 1017.2 1006.8
09 16.08 ЮЗ 2 30 км 6/3 1000 м
[Cu med, cong Ac trans Ci sp]
+22.1 +14.4 62 +25 +33 комфорт 1017.6 1007.2
10 16.08 ЮЗ 1 30 км 8/3 1000 м
[Cu med, cong Ac trans Ci sp]
+24.0 +13.2 51 +26 +34 жарко 1017.1 1006.8
11 16.08 ЮЗ 2 30 км 8/4 1000 м
[Cu med, cong Ac As]
+24.2 +12.5 48 +26 +31 жарко 1016.9 1006.6
12 16.08 ЮЗ 3 30 км 8/4 1000 м
[Cu med, cong Ac As]
+24.7 +11.3 43 +26 +30 жарко 1016.5 1006.2
13 16.08 СЗ 2 30 км 9/4 1000 м
[Cu med, cong Ac As]
+24.3 +13.8 52 +27 +30 жарко 1016.5 1006.2
14 16.08 СЗ 2 30 км 8/4 1000 м
[Cu med, cong Ac As]
+24.6 +13.0 48 +27 +29 жарко 1016.4 1006.1
15 16.08 СЗ 5 30 км 9/4 600 м
[Cu med, cong As op]
+23.0 +14.8 60 +27 +27 душно 1016.4 1006.1
16 16.08 З 1 н/о н/о +23.8 +15.4 59 +27 +27 жарко 1016.7 1006.4
17 16.08 ЮЗ 1 н/о н/о +23.0 +14.1 57 +26 +26 жарко 1016.7 1006.3
18 16.08 штиль 0 30 км 4/0
[Ac trans]
+21.8 +15.2 66 +25 +25 комфорт 1016.7 1006.3 +25.3
19 16.08 штиль 0 30 км 4/0
[Ac trans]
+17.9 +15.6 86 +18 +18 1017.3 1006.8
20 16.08 штиль 0 20 км 3/0
[Ac trans]
+17.0 +14.5 85 +17 +17 1017.6 1007.1
21 16.08 штиль 0 20 км ясно +15.6 +14.3 92 +15 +15 1017.8 1007.2
00 17.08 ЮЗ 1 10 км ясно +13.2 +12.8 97 +13 +13 1017.9 1007.2
03 17.08 Ю 1 10 км 3/0
[Ci fib]
+11.6 +11.2 97 +11 +11 1017.9 1007.2
04 17.08 штиль 0 500 м туман ясно +11.6 +11.2 97 +11 +11 1018.0 1007.3
05 17.08 СЗ 1 100 м туман ясно +13.2 +13.0 99 +13 +14 1018.2 1007.5
06 17.08 ЮЗ 1 500 м туман 8/8 200 м
[St]
+14.2 +13.7 97 +14 +15 1018.2 1007.6 +11.0
07 17.08 ЮЗ 1 30 км в посл. час туман 3/0
[Ci fib]
+16.2 +15.0 93 +17 +24 1018.4 1007.8
08 17.08 З 1 30 км 5/1 1500 м
[Cu hum Ci fib]
+20.0 +15.9 77 +24 +33 комфорт 1018.1 1007.7
09 17.08 З 1 30 км 6/3 1500 м
[Cu hum Ci fib]
+22.6 +16.4 68 +27 +37 душно 1018.0 1007.7
10 17.08 З 1 30 км 8/3 1500 м
[Cu hum Ci fib]
+24.4 +15.0 56 +27 +38 жарко 1017.6 1007.3
11 17.08 ЮЗ 3 30 км 8/3 1500 м
[Cu hum Cs]
+24.7 +15.3 56 +28 +35 душно 1016.8 1006.5
12 17.08 Ю 2 30 км 8/3 1500 м
[Cu hum Ci fib]
+25.9 +14.0 48 +28 +37 жарко 1016.3 1006.1
13 17.08 Ю 2 30 км 8/3 1500 м
[Cu hum Ci fib]
+26.4 +12.5 42 +28 +35 жарко 1016.0 1005.8
14 17.08 С 1 30 км 5/3 1500 м
[Cu hum Ci fib]
+27.2 +10.6 35 +28 +34 жарко 1015.7 1005.5
15 17.08 ЮЗ 3 30 км 4/3 1500 м
[Cu hum Ci fib]
+27.0 +11.2 37 +28 +31 жарко 1015.5 1005.3
16 17.08 ЮЗ 1 н/о н/о +27.8 +10.1 33 +28 +28 жарко 1015.8 1005.6
17 17.08 ЮЗ 1 н/о н/о +25.4 +15.8 55 +29 +29 душно 1015.7 1005.4
18 17.08 штиль 0 30 км 3/0
[Ci fib]
+23.2 +11.8 49 +26 +26 жарко 1014.9 1004.6 +27.4
19 17.08 СВ 1 30 км 3/0
[Ci fib]
+18.8 +15.1 79 +21 +21 комфорт 1015.6 1005.2
20 17.08 СВ 1 10 км ясно +19.8 +14.1 70 +23 +23 комфорт 1015.6 1005.2
21 17.08 ЮЗ 1 10 км ясно +14.6 +12.9 90 +15 +15 1016.0 1005.4
00 18.08 штиль 0 н/о н/о +12.7 +11.0 89 +12 +12 1016.7 1006.0
03 18.08 СЗ 1 10 км ясно +11.8 +11.2 96 +12 +12 1015.6 1004.9
04 18.08 ЮЗ 1 5000 м дымка 3/0
[Ac trans Ci fib]
+11.2 +10.6 96 +11 +11 1016.0 1005.3
05 18.08 СВ 1 30 км 5/0
[Ac trans Ci fib]
+12.4 +12.0 97 +12 +13 1016.1 1005.4
06 18.08 штиль 0 30 км 5/0
[Ac trans Ci]
+15.0 +14.1 94 +15 +18 1016.3 1005.7 +11.1
07 18.08 З 1 30 км 8/0
[Ac und]
+19.0 +14.8 77 +21 +24 комфорт 1016.2 1005.8
08 18.08 З 1 30 км 3/0
[Ac trans]
+21.2 +15.2 69 +24 +34 комфорт 1016.5 1006.1
09 18.08 ЮЗ 1 30 км 4/0
[Ac trans Ci fib]
+24.2 +15.5 58 +27 +39 жарко 1016.5 1006.2
10 18.08 Ю 1 30 км 3/0
[Ci fib]
+26.3 +14.9 49 +29 +45 жарко 1016.3 1006.1
11 18.08 ЮЗ 1 30 км 1/0
[Ci fib]
+28.0 +14.2 43 +30 +48 жарко 1015.6 1005.5
12 18.08 Ю 1 30 км ясно +29.4 +13.9 39 +31 +48 жарко 1015.4 1005.3
13 18.08 Ю 1 30 км ясно +30.3 +14.1 37 +32 +46 жарко 1015.3 1005.2
14 18.08 Ю 2 30 км ясно +30.4 +12.6 34 +31 +40 жарко 1014.6 1004.5
15 18.08 З 1 30 км ясно +31.5 +12.9 32 +32 +38 жарко 1014.3 1004.3
16 18.08 В 1 н/о н/о +31.6 +11.5 29 +32 +32 жарко 1014.5 1004.4
17 18.08 ЮВ 1 н/о н/о +29.8 +14.4 39 +32 +32 душно 1014.4 1004.3
18 18.08 В 1 30 км 3/0
[Ci fib]
+27.7 +15.0 46 +30 +30 жарко 1014.1 1004.0 +31.6
19 18.08 СВ 1 20 км 3/0
[Ci fib]
+25.2 +15.6 55 +28 +28 жарко 1014.5 1004.3
20 18.08 СВ 2 10 км ясно +23.6 +14.8 58 +26 +26 жарко 1014.7 1004.4
21 18.08 СВ 1 10 км ясно +18.7 +15.7 83 +21 +21 комфорт 1014.8 1004.4
00 19.08 штиль 0 10 км 3/0
[Ci fib]
+16.3 +14.6 90 +16 +16 1015.1 1004.6
03 19.08 З 1 10 км 3/0
[Ci fib]
+13.5 +12.6 94 +14 +14 1015.2 1004.6
04 19.08 штиль 0 5000 м дымка 3/0
[Ci]
+13.9 +13.2 96 +13 +13 1015.7 1005.1
05 19.08 штиль 0 5000 м дымка 4/0
[Ci]
+14.2 +13.3 94 +14 +15 1016.0 1005.4
06 19.08 ЮЗ 1 10 км 1/0
[Ci fib]
+17.0 +15.5 91 +18 +21 1015.9 1005.4 +13.3
07 19.08 ЮЗ 1 10 км 1/0
[Ci fib]
+20.7 +15.8 74 +25 +32 комфорт 1016.0 1005.6
08 19.08 ЮЗ 1 10 км ясно +23.7 +16.3 63 +27 +38 жарко 1015.9 1005.6
09 19.08 Ю 1 30 км ясно +26.6 +16.4 54 +30 +45 душно 1015.8 1005.6
10 19.08 ЮЗ 2 30 км ясно +28.6 +17.6 51 +33 +48 очень
душно
1015.7 1005.6
11 19.08 ЮЗ 1 30 км ясно +30.1 +17.8 48 +35 +53 опасность
солнечного
удара
1015.7 1005.6
12 19.08 Ю 2 30 км 1/1 1000 м
[Cu hum]
+31.4 +17.5 43 +35 +48 очень
душно
1015.2 1005.2
13 19.08 ЮЗ 2 10 км 1/1 1000 м
[Cu hum]
+32.4 +16.9 40 +36 +46 очень
душно
1015.4 1005.4
14 19.08 ЮЗ 1 10 км ясно +32.7 +15.6 36 +35 +45 душно 1015.1 1005.1
15 19.08 ЮЗ 1 10 км ясно +32.6 +15.1 35 +35 +40 душно 1014.8 1004.8
16 19.08 ЮЗ 2 н/о н/о +32.5 +18.0 42 +37 +37 очень
душно
1015.2 1005.2
17 19.08 ЮЗ 1 н/о н/о +30.3 +21.2 58 +38 +38 очень
душно
1015.5 1005.4
18 19.08 штиль 0 10 км 1/0
[Ci fib]
+28.2 +18.6 56 +33 +33 очень
душно
1014.9 1004.8 +33.2
19 19.08 С 1 10 км ясно +24.5 +20.3 77 +30 +30 очень
душно
1015.4 1005.2
20 19.08 СЗ 1 10 км ясно +21.9 +18.6 82 +27 +27 душно 1015.7 1005.4
21 19.08 штиль 0 10 км ясно +21.0 +17.9 82 +25 +25 комфорт 1016.2 1005.8
00 20.08 ЮВ 1 10 км ясно +19.1 +17.7 92 +22 +22 комфорт 1016.3 1005.9
03 20.08 штиль 0 4000 м дымка ясно +16.7 +15.7 94 +17 +17 1016.9 1006.4
04 20.08 штиль 0 200 м туман ясно +16.0 +15.2 95 +16 +16 1017.4 1006.8
05 20.08 штиль 0 1000 м в посл. час туман ясно +15.6 +14.9 96 +15 +16 1017.7 1007.1
06 20.08 З 1 30 км ясно +19.7 +18.0 90 +23 +27 комфорт 1017.8 1007.4 +15.0
07 20.08 штиль 0 30 км ясно +22.5 +18.6 79 +28 +36 душно 1017.8 1007.5
08 20.08 ЮЗ 1 30 км ясно +25.2 +19.8 72 +31 +42 очень
душно
1017.8 1007.6
09 20.08 ЮВ 2 30 км ясно +27.3 +18.2 58 +32 +45 очень
душно
1017.8 1007.6
10 20.08 Ю 2 30 км ясно +29.4 +19.2 54 +35 +50 очень
душно
1017.8 1007.7
11 20.08 Ю 2 30 км ясно +31.2 +19.0 48 +36 +52 опасность
солнечного
удара
1017.6 1007.6

 

Местоположение метеостанции Славонски-Брод (Хорватия): широта 45.17 долгота 18.00 высота над уровнем моря 89 м.

В архиве по умолчанию представлена погода в Славонски-Броде за последнюю неделю. Архивные данные за месяц целиком и за предыдущие месяцы, начиная с января 2011 года, Вы можете получить, выбрав интересующий диапазон дат из раскрывающегося списка и нажав кнопку "Ввод!".


*Определитесь, кто Вы:
робот инопланетянин человек

Внимание! Время в таблицах - всемирное. Для получения местного времени необходимо прибавить поправку, которая равна 1 ч.

Смотрите также архив погоды в соседних городах и на ближайших метеорологических станциях:

Погода в Градачаце (Босния и Герцеговина) (47 км)
Погода в Градиште (Хорватия) (55 км)
Погода в Осиек-Чепине (Хорватия) (58 км)
Погода в Осиек аэропорту (Хорватия) (72 км)
Погода в Баня-Луке (Босния и Герцеговина) (75 км)
Погода в Даруваре (Хорватия) (77 км)
Погода в Тузле (Босния и Герцеговина) (88 км)
Погода в Пече (Венгрия) (94 км)
Погода на Било-Горе (Хорватия) (101 км)
Погода в Зенице (Босния и Герцеговина) (106 км)

Пояснения к столбцам:

Ветер - указаны скорость ветра в м/с - средняя за 10 мин, порывы в срок и между сроками (в фигурных скобках) и направление, откуда дует ветер: С - северный, СВ - северо-восточный, В - восточный, ЮВ - юго-восточный, Ю - южный, ЮЗ - юго-западный, З - западный, СЗ - северо-западный.
Видимость - горизонтальная дальность видимости в метрах или километрах. При видимости от 1 до 10 км при отсутствии осадков обычно наблюдается дымка, при ухудшении видимости до 1 км и менее - туман. В сухую погоду видимость может ухудшаться дымом, пылью или мглою.
Явления - указаны атмосферные явления, наблюдавшиеся в срок или в последний час перед сроком; фигурными скобками обозначены явления, наблюдавшиеся между сроками (за 1-3 часа до срока); квадратными скобками обозначены град или гололедные отложения с указанием их диаметра в мм.
Облачность - указаны через наклонную черту общая и нижняя облачность в баллах и высота нижней границы облаков в метрах; квадратными скобками обозначены формы облаков: Ci - перистые, Cs - перисто-слоистые, Cc - перисто-кучевые, Ac - высококучевые, As - высокослоистые, Sc - слоисто-кучевые, Ns - слоисто-дождевые, Cu - кучевые, Cb - кучево-дождевые. Подробнее классификацию облаков см. в Атласе облаков (PDF).
T - Температура воздуха - температура, измеренная на высоте 2 м над землей.
Td - Температура точки росы - температура, при понижении до которой содержащийся в воздухе водяной пар достигнет насыщения.
f - Относительная влажность воздуха - влажноcть воздуха, измеренная на высоте 2 м над землей.
Te - Эффективная температура - температура, которую ощущает одетый по сезону человек в тени. Характеристика душности погоды. При расчете учитывается влияние влажности воздуха и скорости ветра на теплоощущения человека.
Tes - Эффективная температура на солнце - температура, которую ощущает человек, с поправкой на солнечный нагрев. Характеристика знойности погоды. Зависит от высоты солнца над горизонтом, облачности и скорости ветра. Ночью, в пасмурную погоду, а также при ветре 12 м/с и более поправка равна нулю.
P - Атмосферное давление - приведенное к уровню моря атмосферное давление.
Po - Атмосферное давление - измеренное на уровне метеостанции атмосферное давление.
Tmin - Минимальная температура - минимум температуры воздуха на высоте 2 м над землей.
Tmax - Максимальная температура - максимум температуры воздуха на высоте 2 м над землей.
R - Количество осадков - Количество выпавших осадков за период времени, мм. При наведении курсора мыши на число - период времени, за который выпало указанное количество осадков.
R24 - Количество осадков - Количество выпавших осадков за 24 часа, мм.
S - Снежный покров - Высота снежного покрова, см. При наведении курсора мыши на число - состояние снежного покрова и степень покрытия местности в баллах.